When you browse on this site, cookies collect data to enhance your experience and personalize the content and advertising you see.
Visit our Privacy Policy to learn more. By continuing to use the site, you agree to this use of cookies and data.

Hourly Weather San Luis

Today, 14 August, Friday

Time Temperature Precipitation Wind Pressure Humidity
00:00 +8°C° 0 mm 4 mps 691 mmHg 22%
01:00 +8°C° 0 mm 4 mps 691 mmHg 23%
02:00 +9°C° 0 mm 5 mps 690 mmHg 24%
03:00 +8°C° 0 mm 4 mps 690 mmHg 25%
04:00 +8°C° 0 mm 4 mps 690 mmHg 27%
05:00 +9°C° 0 mm 3 mps 690 mmHg 28%
06:00 +9°C° 0 mm 3 mps 691 mmHg 30%
07:00 +9°C° 0 mm 2 mps 692 mmHg 31%
08:00 +9°C° 0 mm 2 mps 692 mmHg 32%
09:00 +12°C° 0 mm 2 mps 693 mmHg 29%
10:00 +13°C° 0 mm 3 mps 694 mmHg 25%
11:00 +16°C° 0 mm 3 mps 695 mmHg 22%
12:00 +15°C° 0 mm 5 mps 695 mmHg 23%
13:00 +15°C° 0 mm 7 mps 695 mmHg 24%
14:00 +15°C° 0 mm 9 mps 695 mmHg 24%
15:00 +15°C° 0 mm 8 mps 695 mmHg 23%
16:00 +14°C° 0 mm 7 mps 695 mmHg 21%
17:00 +14°C° 0 mm 7 mps 696 mmHg 19%
18:00 +11°C° 0 mm 6 mps 696 mmHg 19%
19:00 +10°C° 0 mm 5 mps 696 mmHg 19%
20:00 +8°C° 0 mm 5 mps 697 mmHg 19%
21:00 +7°C° 0 mm 5 mps 697 mmHg 20%
22:00 +7°C° 0 mm 5 mps 697 mmHg 20%
23:00 +6°C° 0 mm 4 mps 697 mmHg 21%

Tomorrow, 15 August, Saturday

Time Temperature Precipitation Wind Pressure Humidity
00:00 +6°C° 0 mm 4 mps 697 mmHg 22%
01:00 +5°C° 0 mm 3 mps 696 mmHg 23%
02:00 +6°C° 0 mm 2 mps 696 mmHg 24%
03:00 +6°C° 0 mm 2 mps 696 mmHg 25%
04:00 +6°C° 0 mm 2 mps 695 mmHg 27%
05:00 +5°C° 0 mm 2 mps 695 mmHg 28%
06:00 +6°C° 0 mm 2 mps 695 mmHg 29%
07:00 +7°C° 0 mm 2 mps 695 mmHg 29%
08:00 +8°C° 0 mm 1 mps 696 mmHg 30%
09:00 +11°C° 0 mm 1 mps 696 mmHg 26%
10:00 +13°C° 0 mm 1 mps 697 mmHg 22%
11:00 +15°C° 0 mm 1 mps 698 mmHg 18%
12:00 +16°C° 0 mm 1 mps 698 mmHg 18%
13:00 +17°C° 0 mm 2 mps 698 mmHg 17%
14:00 +18°C° 0 mm 3 mps 698 mmHg 17%
15:00 +17°C° 0 mm 3 mps 698 mmHg 17%
16:00 +17°C° 0 mm 3 mps 698 mmHg 17%
17:00 +15°C° 0 mm 4 mps 698 mmHg 17%
18:00 +13°C° 0 mm 4 mps 698 mmHg 19%
19:00 +10°C° 0 mm 5 mps 698 mmHg 21%
20:00 +8°C° 0 mm 6 mps 698 mmHg 23%
21:00 +7°C° 0 mm 5 mps 699 mmHg 26%
22:00 +6°C° 0 mm 5 mps 699 mmHg 29%
23:00 +5°C° 0 mm 4 mps 699 mmHg 32%

Day after tomorrow, 16 August, Sunday

Time Temperature Precipitation Wind Pressure Humidity
00:00 +5°C° 0 mm 3 mps 699 mmHg 32%
01:00 +6°C° 0 mm 2 mps 698 mmHg 33%
02:00 +6°C° 0 mm 1 mps 698 mmHg 33%
03:00 +6°C° 0 mm 2 mps 698 mmHg 33%
04:00 +6°C° 0 mm 2 mps 697 mmHg 34%
05:00 +6°C° 0 mm 2 mps 697 mmHg 34%
06:00 +7°C° 0 mm 3 mps 697 mmHg 34%
07:00 +7°C° 0 mm 4 mps 697 mmHg 34%
08:00 +8°C° 0 mm 5 mps 698 mmHg 34%
09:00 +10°C° 0 mm 5 mps 698 mmHg 31%
10:00 +13°C° 0 mm 6 mps 698 mmHg 27%
11:00 +16°C° 0 mm 7 mps 698 mmHg 23%
12:00 +16°C° 0 mm 7 mps 698 mmHg 22%
13:00 +17°C° 0 mm 6 mps 697 mmHg 21%
14:00 +19°C° 0 mm 6 mps 697 mmHg 19%
15:00 +19°C° 0 mm 5 mps 696 mmHg 20%
16:00 +17°C° 0 mm 5 mps 696 mmHg 21%
17:00 +18°C° 0 mm 4 mps 696 mmHg 21%
18:00 +15°C° 0 mm 4 mps 695 mmHg 25%
19:00 +13°C° 0 mm 4 mps 695 mmHg 28%
20:00 +11°C° 0 mm 3 mps 695 mmHg 32%
21:00 +10°C° 0 mm 3 mps 696 mmHg 33%
22:00 +10°C° 0 mm 3 mps 696 mmHg 34%
23:00 +9°C° 0 mm 3 mps 696 mmHg 36%

17 August, Monday

Time Temperature Precipitation Wind Pressure Humidity
00:00 +9°C° 0 mm 2 mps 696 mmHg 37%
01:00 +8°C° 0 mm 2 mps 696 mmHg 39%
02:00 +8°C° 0 mm 2 mps 696 mmHg 41%
03:00 +8°C° 0 mm 2 mps 696 mmHg 42%
04:00 +7°C° 0 mm 2 mps 695 mmHg 43%
05:00 +7°C° 0 mm 2 mps 695 mmHg 44%
06:00 +8°C° 0 mm 2 mps 695 mmHg 43%
07:00 +9°C° 0 mm 3 mps 695 mmHg 42%
08:00 +10°C° 0 mm 3 mps 696 mmHg 41%
09:00 +12°C° 0 mm 4 mps 696 mmHg 36%
10:00 +15°C° 0 mm 5 mps 696 mmHg 30%
11:00 +19°C° 0 mm 6 mps 696 mmHg 24%
12:00 +20°C° 0 mm 6 mps 695 mmHg 23%
13:00 +20°C° 0 mm 6 mps 694 mmHg 21%
14:00 +21°C° 0 mm 6 mps 693 mmHg 19%
15:00 +21°C° 0 mm 6 mps 692 mmHg 20%
16:00 +20°C° 0 mm 6 mps 692 mmHg 21%
17:00 +20°C° 0 mm 6 mps 691 mmHg 22%
18:00 +17°C° 0 mm 5 mps 691 mmHg 27%
19:00 +15°C° 0 mm 5 mps 690 mmHg 32%
20:00 +13°C° 0 mm 4 mps 690 mmHg 37%
21:00 +13°C° 0 mm 5 mps 690 mmHg 38%
22:00 +13°C° 0 mm 5 mps 690 mmHg 38%
23:00 +13°C° 0 mm 6 mps 690 mmHg 39%

18 August, Tuesday

Time Temperature Precipitation Wind Pressure Humidity
00:00 +13°C° 0 mm 6 mps 690 mmHg 40%
01:00 +11°C° 0 mm 6 mps 690 mmHg 41%
02:00 +11°C° 0 mm 6 mps 689 mmHg 42%
03:00 +10°C° 0 mm 7 mps 690 mmHg 41%
04:00 +9°C° 0 mm 8 mps 690 mmHg 40%
05:00 +7°C° 0 mm 9 mps 691 mmHg 39%
06:00 +6°C° 0 mm 9 mps 692 mmHg 39%
07:00 +5°C° 0 mm 10 mps 693 mmHg 39%
08:00 +3°C° 0 mm 10 mps 694 mmHg 39%
09:00 +4°C° 0 mm 11 mps 695 mmHg 38%
10:00 +4°C° 0 mm 11 mps 696 mmHg 37%
11:00 +5°C° 0 mm 12 mps 697 mmHg 36%
12:00 +6°C° 0 mm 11 mps 696 mmHg 35%
13:00 +5°C° 0 mm 10 mps 696 mmHg 34%
14:00 +5°C° 0 mm 9 mps 696 mmHg 33%
15:00 +5°C° 0 mm 9 mps 697 mmHg 29%
16:00 +5°C° 0 mm 9 mps 697 mmHg 24%
17:00 +6°C° 0 mm 9 mps 698 mmHg 20%
18:00 +5°C° 0 mm 7 mps 698 mmHg 22%
19:00 +3°C° 0 mm 6 mps 699 mmHg 24%
20:00 +3°C° 0 mm 4 mps 700 mmHg 27%
21:00 +2°C° 0 mm 5 mps 701 mmHg 28%
22:00 +1°C° 0 mm 5 mps 701 mmHg 29%
23:00 +1°C° 0 mm 5 mps 702 mmHg 31%

19 August, Wednesday

Time Temperature Precipitation Wind Pressure Humidity
00:00 0°C° 0 mm 4 mps 703 mmHg 34%
01:00 0°C° 0 mm 4 mps 703 mmHg 38%
02:00 -1°C° 0 mm 4 mps 703 mmHg 42%
03:00 0°C° 0 mm 3 mps 704 mmHg 44%
04:00 -1°C° 0 mm 3 mps 704 mmHg 47%
05:00 -1°C° 0 mm 3 mps 704 mmHg 49%
06:00 -1°C° 0 mm 3 mps 705 mmHg 48%
07:00 -1°C° 0 mm 3 mps 705 mmHg 48%
08:00 0°C° 0 mm 3 mps 706 mmHg 47%
09:00 0°C° 0 mm 4 mps 707 mmHg 42%
10:00 +2°C° 0 mm 6 mps 707 mmHg 38%
11:00 +4°C° 0 mm 7 mps 708 mmHg 33%
12:00 +4°C° 0 mm 7 mps 707 mmHg 32%
13:00 +4°C° 0 mm 8 mps 707 mmHg 31%
14:00 +5°C° 0 mm 8 mps 707 mmHg 31%
15:00 +4°C° 0 mm 7 mps 707 mmHg 31%
16:00 +4°C° 0 mm 7 mps 706 mmHg 30%
17:00 +4°C° 0 mm 6 mps 706 mmHg 30%
18:00 +2°C° 0 mm 5 mps 707 mmHg 33%
19:00 +1°C° 0 mm 4 mps 707 mmHg 37%
20:00 +1°C° 0 mm 3 mps 707 mmHg 40%
21:00 0°C° 0 mm 3 mps 707 mmHg 43%
22:00 +1°C° 0 mm 2 mps 708 mmHg 45%
23:00 -1°C° 0 mm 2 mps 708 mmHg 48%
Show more